Weather History for Knoxville, TN

Change the Weather History Date:

Sunday, February 23, 2014

  Actual Average Record
Temperature  
Mean Temperature 53 °F 44 °F  
Max Temperature 68 °F 55 °F 83 °F (1996)
Min Temperature 38 °F 34 °F 13 °F (1963)
Degree Days  
Heating Degree Days 12 21  
Month to date heating degree days 515 536  
Since 1 July heating degree days 2904 2798  
Cooling Degree Days 0 0  
Month to date cooling degree days 0 0  
Year to date cooling degree days 0 0  
Growing Degree Days 2 (Base 50)    
Moisture  
Dew Point 29 °F    
Average Humidity 47    
Maximum Humidity 70    
Minimum Humidity 24    
Precipitation  
Precipitation 0.00 in 0.15 in 2.46 in (1962)
Month to date precipitation 4.95 3.50  
Year to date precipitation 8.07 7.82  
Snow  
Snow 0.00 in 0.10 in - ()
Month to date snowfall 6.9 1.4  
Since 1 July snowfall 11.9 4.9  
Snow Depth 0.00 in    
Sea Level Pressure  
Sea Level Pressure 30.00 in    
Wind  
Wind Speed 6 mph (WNW)    
Max Wind Speed 25 mph    
Max Gust Speed 34 mph    
Visibility 10 miles    
Events      
T = Trace of Precipitation, MM = Missing Value Source: NWS Daily Summary

Daily Weather History Graph

Daily Weather History Graph

Search for Another Location

Airport:

Trip Planner

Search our weather history database for the weather conditions in past years. The results will help you decide how hot, cold, wet, or windy it might be!

Date:

Astronomy

Feb. 23, 2014 Rise Set
Actual Time 7:13 AM EST 6:25 PM EST
Civil Twilight 6:47 AM EST 6:51 PM EST
Nautical Twilight 6:18 AM EST 7:21 PM EST
Astronomical Twilight 5:48 AM EST 7:50 PM EST
Moon 2:05 AM EST (2/23) 12:32 PM EST (2/23)
Length of Visible Light 12h 03m
Length of Day
11h 11m
Last Quarter, 39% of the Moon is Illuminated
Feb 23
Last Quarter
Mar 1
New
Mar 8
First Quarter
Mar 16
Full
Mar 23
Last Quarter

Hourly Weather History & Observations

Time (EST) Temp. Windchill Dew Point Humidity Pressure Visibility Wind Dir Wind Speed Gust Speed Precip Events Conditions
12:53 AM 46.0 °F 43.9 °F 23.0 °F 40% 30.01 in 10.0 mi West 4.6 mph - N/A   Clear
1:53 AM 46.0 °F 43.1 °F 21.0 °F 37% 30.02 in 10.0 mi WNW 5.8 mph - N/A   Clear
2:53 AM 44.1 °F 40.8 °F 26.1 °F 49% 30.02 in 10.0 mi WNW 5.8 mph - N/A   Mostly Cloudy
3:53 AM 39.0 °F - 30.0 °F 70% 30.03 in 10.0 mi Calm Calm - N/A   Mostly Cloudy
4:53 AM 39.9 °F 37.8 °F 28.9 °F 65% 30.04 in 10.0 mi SSW 3.5 mph - N/A   Mostly Cloudy
5:53 AM 39.9 °F - 28.9 °F 65% 30.06 in 10.0 mi Calm Calm - N/A   Mostly Cloudy
6:53 AM 39.9 °F - 28.0 °F 63% 30.06 in 10.0 mi Calm Calm - N/A   Mostly Cloudy
7:53 AM 43.0 °F - 28.0 °F 56% 30.06 in 10.0 mi Calm Calm - N/A   Scattered Clouds
8:53 AM 48.9 °F - 30.0 °F 48% 30.05 in 10.0 mi Calm Calm - N/A   Scattered Clouds
9:53 AM 55.0 °F - 28.9 °F 37% 30.04 in 10.0 mi NW 3.5 mph - N/A   Scattered Clouds
10:53 AM 60.1 °F - 30.9 °F 33% 30.02 in 10.0 mi Variable 5.8 mph - N/A   Scattered Clouds
11:53 AM 62.1 °F - 30.0 °F 30% 30.01 in 10.0 mi West 6.9 mph - N/A   Scattered Clouds
12:53 PM 64.0 °F - 30.9 °F 29% 29.99 in 10.0 mi SSW 9.2 mph - N/A   Mostly Cloudy
1:53 PM 66.0 °F - 30.0 °F 26% 29.95 in 10.0 mi Variable 3.5 mph 16.1 mph N/A   Mostly Cloudy
2:53 PM 66.9 °F - 28.9 °F 24% 29.93 in 10.0 mi Variable 4.6 mph - N/A   Scattered Clouds
3:53 PM 66.9 °F - 28.9 °F 24% 29.92 in 10.0 mi West 11.5 mph - N/A   Scattered Clouds
4:53 PM 66.9 °F - 28.9 °F 24% 29.91 in 10.0 mi West 10.4 mph - N/A   Scattered Clouds
5:53 PM 64.0 °F - 30.0 °F 28% 29.92 in 10.0 mi West 9.2 mph - N/A   Scattered Clouds
6:53 PM 60.1 °F - 28.9 °F 31% 29.92 in 10.0 mi SW 5.8 mph - N/A   Partly Cloudy
7:53 PM 59.0 °F - 28.9 °F 32% 29.92 in 10.0 mi WSW 5.8 mph - N/A   Scattered Clouds
8:53 PM 54.0 °F - 34.0 °F 47% 29.95 in 10.0 mi North 11.5 mph - N/A   Mostly Cloudy
9:53 PM 51.1 °F - 34.0 °F 52% 29.99 in 10.0 mi North 17.3 mph 28.8 mph N/A   Mostly Cloudy
10:53 PM 48.0 °F - 33.1 °F 56% 30.04 in 10.0 mi North 11.5 mph - N/A   Mostly Cloudy
11:53 PM 48.0 °F - 33.1 °F 56% 30.06 in 10.0 mi North 10.4 mph - N/A   Overcast